TimeEDT,TemperatureF,Dew PointF,Humidity,Sea Level PressureIn,VisibilityMPH,Wind Direction,Wind SpeedMPH,Gust SpeedMPH,PrecipitationIn,Events,Conditions,WindDirDegrees,DateUTC
12:01 AM,68.0,64.4,88,29.88,9.0,South,8.1,24.2,0.00,Rain,Light Rain,190,2012-10-03 04:01:00
12:54 AM,66.9,64.0,90,29.86,10.0,East,4.6,-,0.01,,Overcast,80,2012-10-03 04:54:00
1:28 AM,66.2,64.4,94,29.90,8.0,SSW,4.6,-,N/A,,Overcast,200,2012-10-03 05:28:00
1:37 AM,66.2,64.4,94,29.90,8.0,SSW,3.5,-,N/A,,Overcast,200,2012-10-03 05:37:00
1:54 AM,66.0,64.0,93,29.88,8.0,Calm,Calm,-,N/A,,Overcast,0,2012-10-03 05:54:00
2:05 AM,64.4,64.4,100,29.89,5.0,Calm,Calm,-,N/A,,Mostly Cloudy,0,2012-10-03 06:05:00
2:15 AM,64.4,62.6,94,29.90,1.8,South,3.5,-,N/A,,Scattered Clouds,190,2012-10-03 06:15:00
2:29 AM,64.4,62.6,94,29.90,3.0,South,3.5,-,N/A,,Scattered Clouds,190,2012-10-03 06:29:00
2:54 AM,66.0,64.0,93,29.89,6.0,SSE,3.5,-,N/A,,Overcast,160,2012-10-03 06:54:00
3:54 AM,64.9,64.0,97,29.90,7.0,Calm,Calm,-,N/A,,Overcast,0,2012-10-03 07:54:00
4:54 AM,64.9,63.0,93,29.93,9.0,SSW,9.2,-,N/A,,Mostly Cloudy,200,2012-10-03 08:54:00
5:38 AM,64.4,62.6,94,29.96,10.0,SW,8.1,-,N/A,,Mostly Cloudy,230,2012-10-03 09:38:00
5:51 AM,64.4,62.6,94,29.97,9.0,SW,5.8,-,N/A,,Mostly Cloudy,230,2012-10-03 09:51:00
5:54 AM,64.0,62.1,93,29.96,9.0,SW,6.9,-,N/A,,Mostly Cloudy,220,2012-10-03 09:54:00
6:54 AM,64.0,62.1,93,29.99,6.0,SW,8.1,-,N/A,,Overcast,230,2012-10-03 10:54:00
7:54 AM,63.0,61.0,93,30.01,6.0,WSW,10.4,-,N/A,,Overcast,240,2012-10-03 11:54:00
8:24 AM,62.6,60.8,94,30.04,5.0,SSW,8.1,-,N/A,,Mostly Cloudy,200,2012-10-03 12:24:00
8:54 AM,64.0,61.0,90,30.03,6.0,South,5.8,-,N/A,,Overcast,190,2012-10-03 12:54:00
9:54 AM,66.0,60.1,81,30.04,10.0,SSW,8.1,-,N/A,,Clear,210,2012-10-03 13:54:00
10:54 AM,68.0,59.0,73,30.04,10.0,SSW,10.4,-,N/A,,Partly Cloudy,200,2012-10-03 14:54:00
11:11 AM,68.0,57.2,68,30.07,10.0,SSW,9.2,19.6,N/A,,Mostly Cloudy,210,2012-10-03 15:11:00
11:37 AM,69.8,57.2,64,30.06,10.0,SW,12.7,-,N/A,,Mostly Cloudy,220,2012-10-03 15:37:00
11:54 AM,70.0,57.9,65,30.05,10.0,SW,12.7,19.6,N/A,,Mostly Cloudy,220,2012-10-03 15:54:00
12:04 PM,69.8,57.2,64,30.06,10.0,SW,11.5,-,N/A,,Mostly Cloudy,230,2012-10-03 16:04:00
12:26 PM,69.8,57.2,64,30.07,10.0,SSW,11.5,20.7,N/A,,Mostly Cloudy,210,2012-10-03 16:26:00
12:54 PM,70.0,55.9,61,30.04,10.0,SSW,17.3,21.9,N/A,,Mostly Cloudy,200,2012-10-03 16:54:00
1:54 PM,72.0,55.0,55,30.04,10.0,SSW,15.0,27.6,N/A,,Partly Cloudy,210,2012-10-03 17:54:00
2:54 PM,72.0,53.1,51,30.04,10.0,SW,17.3,25.3,N/A,,Clear,220,2012-10-03 18:54:00
3:54 PM,69.1,54.0,58,30.06,10.0,WSW,12.7,21.9,N/A,,Partly Cloudy,240,2012-10-03 19:54:00
4:54 PM,66.9,52.0,59,30.07,10.0,WSW,9.2,20.7,N/A,,Clear,240,2012-10-03 20:54:00
5:54 PM,66.0,51.1,59,30.09,10.0,SW,8.1,-,N/A,,Clear,230,2012-10-03 21:54:00
6:54 PM,63.0,52.0,67,30.09,10.0,SSW,4.6,-,N/A,,Clear,210,2012-10-03 22:54:00
7:54 PM,62.1,53.1,72,30.11,10.0,Calm,Calm,-,N/A,,Clear,0,2012-10-03 23:54:00
8:54 PM,60.1,53.1,78,30.11,10.0,Calm,Calm,-,N/A,,Clear,0,2012-10-04 00:54:00
9:54 PM,57.9,53.1,84,30.13,10.0,Calm,Calm,-,N/A,,Clear,0,2012-10-04 01:54:00
10:54 PM,55.9,53.1,90,30.13,10.0,Calm,Calm,-,N/A,,Clear,0,2012-10-04 02:54:00
11:54 PM,57.9,53.1,84,30.14,10.0,Calm,Calm,-,N/A,,Clear,0,2012-10-04 03:54:00